When you browse on this site, cookies collect data to enhance your experience and personalize the content and advertising you see.
Visit our Privacy Policy to learn more. By continuing to use the site, you agree to this use of cookies and data.
  • In Sweden
  • List of Countries
  • For 7 days
  • Water Temperature
  • Satellite Maps
  • Weather Map
  • Weather Widgets
  • user-avatar
    Login

    Hourly Weather Tyrgowishte

    Today, 18 January, Friday

    Time Temperature Precipitation Wind Pressure Humidity
    00:00 +3°C° 0 mm 2 mps 744 mmHg 70%
    01:00 +3°C° 0 mm 2 mps 744 mmHg 70%
    02:00 +4°C° 0 mm 1 mps 743 mmHg 68%
    03:00 +4°C° 0 mm 1 mps 743 mmHg 68%
    04:00 +4°C° 0 mm 1 mps 743 mmHg 68%
    05:00 +4°C° 0 mm 1 mps 743 mmHg 69%
    06:00 +4°C° 0 mm 1 mps 743 mmHg 69%
    07:00 +3°C° 0 mm 1 mps 743 mmHg 70%
    08:00 +3°C° 0 mm 1 mps 743 mmHg 70%
    09:00 +5°C° 0 mm 1 mps 743 mmHg 68%
    10:00 +6°C° 0 mm 1 mps 743 mmHg 65%
    11:00 +8°C° 0 mm 1 mps 743 mmHg 63%
    12:00 +8°C° 0 mm 1 mps 743 mmHg 62%
    13:00 +9°C° 0 mm 1 mps 743 mmHg 61%
    14:00 +10°C° 0 mm 1 mps 743 mmHg 60%
    15:00 +9°C° 0 mm 1 mps 743 mmHg 65%
    16:00 +7°C° 0 mm 1 mps 743 mmHg 69%
    17:00 +6°C° 0 mm 1 mps 742 mmHg 73%
    18:00 +6°C° 0 mm 1 mps 743 mmHg 73%
    19:00 +5°C° 0 mm 1 mps 743 mmHg 73%
    20:00 +5°C° 0 mm 1 mps 743 mmHg 73%
    21:00 +5°C° 0 mm 1 mps 743 mmHg 72%
    22:00 +5°C° 0 mm 1 mps 743 mmHg 71%
    23:00 +5°C° 0 mm 1 mps 743 mmHg 69%

    Tomorrow, 19 January, Saturday

    Time Temperature Precipitation Wind Pressure Humidity
    00:00 +4°C° 0 mm 1 mps 743 mmHg 69%
    01:00 +3°C° 0 mm 2 mps 744 mmHg 69%
    02:00 +3°C° 0 mm 2 mps 744 mmHg 69%
    03:00 +3°C° 0 mm 2 mps 744 mmHg 71%
    04:00 +3°C° 0 mm 2 mps 744 mmHg 73%
    05:00 +3°C° 0 mm 2 mps 745 mmHg 75%
    06:00 +2°C° 0.1 mm 2 mps 745 mmHg 79%
    07:00 +2°C° 0.1 mm 2 mps 746 mmHg 83%
    08:00 +3°C° 0.1 mm 1 mps 746 mmHg 87%
    09:00 +3°C° 0.1 mm 1 mps 747 mmHg 85%
    10:00 +4°C° 0.1 mm 1 mps 747 mmHg 84%
    11:00 +5°C° 0.1 mm 1 mps 748 mmHg 82%
    12:00 +4°C° 0 mm 2 mps 747 mmHg 81%
    13:00 +4°C° 0 mm 2 mps 747 mmHg 81%
    14:00 +5°C° 0 mm 2 mps 747 mmHg 80%
    15:00 +4°C° 0 mm 2 mps 747 mmHg 82%
    16:00 +4°C° 0 mm 2 mps 747 mmHg 85%
    17:00 +2°C° 0 mm 3 mps 747 mmHg 88%
    18:00 +2°C° 0 mm 3 mps 748 mmHg 88%
    19:00 +2°C° 0 mm 3 mps 748 mmHg 89%
    20:00 +1°C° 0 mm 4 mps 748 mmHg 89%
    21:00 +2°C° 0 mm 3 mps 748 mmHg 90%
    22:00 +1°C° 0 mm 3 mps 748 mmHg 92%
    23:00 +1°C° 0 mm 3 mps 748 mmHg 93%

    Day after tomorrow, 20 January, Sunday

    Time Temperature Precipitation Wind Pressure Humidity
    00:00 +1°C° 0.1 mm 3 mps 748 mmHg 94%
    01:00 +1°C° 0.1 mm 3 mps 747 mmHg 95%
    02:00 +1°C° 0.1 mm 3 mps 747 mmHg 96%
    03:00 +1°C° 0.4 mm 3 mps 747 mmHg 96%
    04:00 +2°C° 0.4 mm 2 mps 746 mmHg 96%
    05:00 +2°C° 0.4 mm 2 mps 746 mmHg 96%
    06:00 +3°C° 0.1 mm 2 mps 746 mmHg 96%
    07:00 +3°C° 0.1 mm 2 mps 746 mmHg 96%
    08:00 +3°C° 0.1 mm 2 mps 746 mmHg 96%
    09:00 +4°C° 0 mm 2 mps 745 mmHg 95%
    10:00 +5°C° 0 mm 2 mps 745 mmHg 94%
    11:00 +6°C° 0 mm 2 mps 745 mmHg 93%
    12:00 +6°C° 0 mm 2 mps 745 mmHg 92%
    13:00 +7°C° 0 mm 2 mps 744 mmHg 91%
    14:00 +7°C° 0 mm 2 mps 743 mmHg 90%
    15:00 +7°C° 0 mm 2 mps 743 mmHg 92%
    16:00 +7°C° 0 mm 1 mps 743 mmHg 93%
    17:00 +7°C° 0 mm 1 mps 743 mmHg 95%
    18:00 +6°C° 0.1 mm 1 mps 743 mmHg 95%
    19:00 +6°C° 0.1 mm 1 mps 742 mmHg 96%
    20:00 +6°C° 0.1 mm 1 mps 742 mmHg 96%
    21:00 +5°C° 0.2 mm 1 mps 742 mmHg 96%
    22:00 +5°C° 0.2 mm 1 mps 742 mmHg 96%
    23:00 +4°C° 0.2 mm 2 mps 742 mmHg 97%

    21 January, Monday

    Time Temperature Precipitation Wind Pressure Humidity
    00:00 +4°C° 0.2 mm 2 mps 743 mmHg 96%
    01:00 +3°C° 0.2 mm 2 mps 743 mmHg 96%
    02:00 +2°C° 0.2 mm 3 mps 743 mmHg 95%
    03:00 +2°C° 0 mm 3 mps 743 mmHg 95%
    04:00 +1°C° 0 mm 4 mps 743 mmHg 94%
    05:00 0°C° 0 mm 4 mps 743 mmHg 94%
    06:00 0°C° 0 mm 4 mps 744 mmHg 93%
    07:00 0°C° 0 mm 4 mps 744 mmHg 92%
    08:00 0°C° 0 mm 4 mps 745 mmHg 91%
    09:00 +1°C° 0 mm 4 mps 745 mmHg 88%
    10:00 +1°C° 0 mm 4 mps 746 mmHg 84%
    11:00 +3°C° 0 mm 3 mps 746 mmHg 81%
    12:00 +3°C° 0 mm 3 mps 746 mmHg 80%
    13:00 +3°C° 0 mm 3 mps 746 mmHg 79%
    14:00 +4°C° 0 mm 2 mps 747 mmHg 77%
    15:00 +4°C° 0 mm 2 mps 747 mmHg 79%
    16:00 +4°C° 0 mm 2 mps 747 mmHg 80%
    17:00 +3°C° 0 mm 2 mps 748 mmHg 82%
    18:00 +2°C° 0 mm 2 mps 748 mmHg 82%
    19:00 +2°C° 0 mm 2 mps 749 mmHg 82%
    20:00 +1°C° 0 mm 2 mps 749 mmHg 82%
    21:00 +1°C° 0 mm 2 mps 750 mmHg 81%
    22:00 -1°C° 0 mm 2 mps 750 mmHg 80%
    23:00 -1°C° 0 mm 2 mps 750 mmHg 79%

    22 January, Tuesday

    Time Temperature Precipitation Wind Pressure Humidity
    00:00 -1°C° 0 mm 2 mps 750 mmHg 77%
    01:00 -1°C° 0 mm 2 mps 750 mmHg 76%
    02:00 -2°C° 0 mm 2 mps 750 mmHg 74%
    03:00 -2°C° 0 mm 2 mps 750 mmHg 75%
    04:00 -2°C° 0 mm 2 mps 750 mmHg 76%
    05:00 -2°C° 0 mm 2 mps 749 mmHg 77%
    06:00 -2°C° 0 mm 2 mps 749 mmHg 79%
    07:00 -2°C° 0 mm 2 mps 749 mmHg 82%
    08:00 -1°C° 0 mm 2 mps 749 mmHg 84%
    09:00 -1°C° 0 mm 2 mps 749 mmHg 83%
    10:00 0°C° 0 mm 3 mps 749 mmHg 81%
    11:00 +1°C° 0 mm 3 mps 749 mmHg 80%
    12:00 +2°C° 0 mm 3 mps 748 mmHg 80%
    13:00 +2°C° 0 mm 3 mps 747 mmHg 80%
    14:00 +2°C° 0 mm 3 mps 747 mmHg 80%
    15:00 +2°C° 0 mm 3 mps 746 mmHg 84%
    16:00 +2°C° 0 mm 3 mps 745 mmHg 88%
    17:00 +1°C° 0 mm 3 mps 745 mmHg 91%
    18:00 +1°C° 0 mm 3 mps 744 mmHg 92%
    19:00 +1°C° 0 mm 3 mps 744 mmHg 92%
    20:00 +1°C° 0 mm 3 mps 744 mmHg 93%
    21:00 0°C° 0 mm 4 mps 743 mmHg 93%
    22:00 0°C° 0 mm 4 mps 743 mmHg 93%
    23:00 0°C° 0 mm 4 mps 742 mmHg 93%

    23 January, Wednesday

    Time Temperature Precipitation Wind Pressure Humidity
    00:00 0°C° 0 mm 4 mps 742 mmHg 93%
    01:00 0°C° 0 mm 4 mps 741 mmHg 93%
    02:00 0°C° 0 mm 4 mps 740 mmHg 93%
    03:00 0°C° 0 mm 4 mps 739 mmHg 93%
    04:00 +1°C° 0 mm 4 mps 739 mmHg 93%
    05:00 +1°C° 0 mm 4 mps 738 mmHg 93%
    06:00 +1°C° 0.1 mm 5 mps 738 mmHg 93%
    07:00 +1°C° 0.1 mm 5 mps 737 mmHg 93%
    08:00 +1°C° 0.1 mm 5 mps 737 mmHg 93%
    09:00 +2°C° 1 mm 5 mps 736 mmHg 93%
    10:00 +3°C° 1 mm 5 mps 736 mmHg 93%
    11:00 +3°C° 1 mm 5 mps 735 mmHg 93%
    12:00 +4°C° 0 mm 6 mps 734 mmHg 90%
    13:00 +5°C° 0 mm 6 mps 734 mmHg 88%
    14:00 +7°C° 0 mm 6 mps 733 mmHg 86%
    15:00 +7°C° 0 mm 6 mps 733 mmHg 84%
    16:00 +7°C° 0 mm 5 mps 732 mmHg 82%
    17:00 +7°C° 0 mm 5 mps 732 mmHg 80%
    18:00 +7°C° 0 mm 5 mps 732 mmHg 80%
    19:00 +6°C° 0 mm 5 mps 732 mmHg 80%
    20:00 +5°C° 0 mm 6 mps 732 mmHg 81%
    21:00 +6°C° 0 mm 5 mps 732 mmHg 82%
    22:00 +6°C° 0 mm 5 mps 732 mmHg 84%
    23:00 +6°C° 0 mm 5 mps 732 mmHg 85%
    Show more